Location: Bemmer
(51.5498°N, 5.6249°E)
Time: 13:42:27
(UTC+00:00)

Cosmos 44 Rocket - Pass Details

Date: 03 March 2021
Orbit: 636 x 754 km, 65.1° (Epoch: 10 April)

Event Time Altitude Azimuth Distance (km) Brightness Sun altitude
Rises 18:18:56 0° 316° (NW) 3,209 7.5 -9.7°
Reaches altitude 10° 18:21:22 10° 313° (NW) 2,285 6.7 -10.1°
Maximum altitude 18:26:29 56° 236° (SW) 900 4.2 -10.9°
Drops below altitude 10° 18:31:33 10° 160° (SSE) 2,260 5.7 -11.7°
Sets 18:33:57 0° 156° (SSE) 3,170 6.4 -12.0°
